Location: Bailleul
(50.3375°N, 2.8513°E)
Time: 12:45:57
(UTC+00:00)

ATLAS CENTAUR R/B - Pass Details

Date: 16 June 2021
Orbit: 472 x 671 km, 64.6° (Epoch: 13 June)

Event Time Altitude Azimuth Distance (km) Brightness Sun altitude
Rises 23:15:27 0° 307° (NW) 2,806 5.6 -15.9°
Reaches altitude 10° 23:18:12 10° 289° (WNW) 1,942 4.4 -16.0°
Maximum altitude 23:21:11 18° 246° (WSW) 1,518 3.4 -16.0°
Enters shadow 23:22:33 16° 223° (SW) 1,634 3.3 -16.0°
